This is the latest recevied weather packets stored in our database for station/object KD6VPH. If no packets are shown the sender has not sent any weather packets the latest 10 day(s).
| Time | Temp. | Humidity | Pressure | Rain* | Wind** | Luminosity | Snow |
|---|---|---|---|---|---|---|---|
| 1777701920 | 11.11° C | 79% | 1015.1 hPa | 0 mm | - | 0 W/m² | - |
| 1777701320 | 11.67° C | 78% | 1015.2 hPa | 0 mm | - | 0 W/m² | - |
| 1777700720 | 11.67° C | 77% | 1015.1 hPa | 0 mm | - | 0 W/m² | - |
| 1777700120 | 12.22° C | 76% | 1015.3 hPa | 0 mm | - | 0 W/m² | - |
| 1777699520 | 12.22° C | 75% | 1015.1 hPa | 0 mm | - | 0 W/m² | - |
| 1777698920 | 12.78° C | 75% | 1015.1 hPa | 0 mm | - | 0 W/m² | - |
| 1777698320 | 12.78° C | 74% | 1015.1 hPa | 0 mm | - | 0 W/m² | - |
| 1777697720 | 13.33° C | 73% | 1015.1 hPa | 0 mm | - | 0 W/m² | - |
| 1777697120 | 13.89° C | 73% | 1015.1 hPa | 0 mm | - | 0 W/m² | - |
| 1777696520 | 13.89° C | 72% | 1014.9 hPa | 0 mm | - | 0 W/m² | - |
| 1777695920 | 14.44° C | 72% | 1014.7 hPa | 0 mm | - | 0 W/m² | - |
| 1777695320 | 14.44° C | 71% | 1014.3 hPa | 0 mm | - | 0 W/m² | - |
| 1777694720 | 15° C | 70% | 1014.3 hPa | 0 mm | - | 0 W/m² | - |
| 1777693520 | 15.56° C | 68% | 1013.9 hPa | 0 mm | - | 0 W/m² | - |
| 1777692920 | 16.11° C | 67% | 1013.8 hPa | 0 mm | - | 0 W/m² | - |
| 1777692320 | 16.67° C | 66% | 1013.9 hPa | 0 mm | - | 7 W/m² | - |
| 1777691720 | 17.22° C | 66% | 1013.6 hPa | 0 mm | - | 18 W/m² | - |
| 1777691121 | 17.78° C | 65% | 1013.6 hPa | 0 mm | - | 28 W/m² | - |
| 1777690520 | 18.33° C | 65% | 1013.3 hPa | 0 mm | - | 40 W/m² | - |
| 1777689921 | 18.33° C | 64% | 1013.2 hPa | 0 mm | - | 39 W/m² | - |
| 1777689321 | 18.89° C | 64% | 1013 hPa | 0 mm | - | 44 W/m² | - |
| 1777688721 | 19.44° C | 63% | 1012.8 hPa | 0 mm | - | 47 W/m² | - |
| 1777688121 | 19.44° C | 62% | 1012.7 hPa | 0 mm | - | 47 W/m² | - |
| 1777687521 | 20° C | 61% | 1012.7 hPa | 0 mm | - | 70 W/m² | - |
| 1777686921 | 20.56° C | 61% | 1012.6 hPa | 0 mm | - | 93 W/m² | - |
* Rain latest hour (hover to see other rain measurements)
** Current wind speed in m/s (hover to see current wind gust speed)